Regional Weather Roundup
Issued by NWS

Home | Current Version | Previous Version | Graphics & Text | Print | Product List | Glossary On
Versions: 1 2 3 4 5 6 7 8 9 10 11 12 13 14 15 16 17 18 19 20 21 22 23 24 25 26 27 28 29 30 31 32 33 34 35 36 37 38 39 40 41 42 43 44 45 46 47 48 49 50
000
ASUS45 KCYS 261410
RWRWY

WYOMING REGIONAL WEATHER ROUNDUP
NATIONAL WEATHER SERVICE CHEYENNE WY
700 AM MST THU FEB 26 2015

NOTE:  "FAIR" INDICATES FEW OR NO CLOUDS BELOW 12,000 FEET
WITH NO SIGNIFICANT WEATHER AND/OR OBSTRUCTIONS TO VISIBILITY.

WYZ001-261500-
YELLOWSTONE NATIONAL PARK

CITY           SKY/WX    TMP DP  RH WIND       PRES   REMARKS
LK YELLOWSTONE   N/A     -7 -12  79 CALM      29.98F
W YELLOWSTONE  NOT AVBL

$$
WYZ002>013-054>058-071-098>099-261500-
NORTHERN WYOMING

CITY           SKY/WX    TMP DP  RH WIND       PRES   REMARKS
JACKSON        PTCLDY     3   0  85 N10       30.01S WCI -12
CODY           CLOUDY     7   5  92 N8        30.18S WCI  -6
GREYBULL       CLOUDY    12   2  64 NW15      30.23S WCI  -4
WORLAND        LGT SNOW  14   9  80 N13       30.22S WCI   0
SHERIDAN       LGT SNOW   7   2  80 NE10      30.32R WCI  -8
BUFFALO        LGT SNOW   5   1  83 N3        30.22S FOG
GILLETTE       CLOUDY     3  -1  83 NE6       30.29R FOG     WCI  -8
HULETT         CLOUDY     0  -4  85 CALM      30.31R
NEWCASTLE      FAIR       1  -6  71 N7        30.29S WCI -11

$$
WYZ014>020-022>026-101>103-261500-
CENTRAL WYOMING

CITY           SKY/WX    TMP DP  RH WIND       PRES   REMARKS
BIG PINEY      CLOUDY    17  12  80 SE5       29.99F WCI  10
PINEDALE       LGT SNOW   5   5 100 CALM      29.99F
DUBOIS         LGT SNOW   9   5  85 CALM      29.98S
LANDER         LGT SNOW  13  10  88 N6        30.07F FOG     WCI   4
RIVERTON       CLOUDY    13   7  77 NE13      30.09F WCI  -2
CASPER         CLOUDY    10   3  73 NE10      30.14F WCI  -4
DOUGLAS        CLOUDY     9   3  77 NE7       30.21R WCI  -2

$$
WYZ021-027>030-104>119-261500-
SOUTHERN WYOMING

CITY           SKY/WX    TMP DP  RH WIND       PRES   REMARKS
EVANSTON       CLOUDY    19  15  84 E9        29.92F WCI   8
FORT BRIDGER   CLOUDY    17  16  97 NE5       29.98F WCI   9
ROCK SPRINGS   NOT AVBL
DIXON          PTSUNNY   13   7  76 E7        30.03F WCI   2
RAWLINS        MOCLDY    12   7  80 E3        30.00F
SARATOGA       CLOUDY     9   5  85 CALM      30.00F
LARAMIE        CLOUDY     2  -1  88 W6        29.99S WCI  -9
CHEYENNE       CLOUDY     8   2  76 N6        30.08F WCI  -2
TORRINGTON     CLOUDY     8   0  69 NE12      30.26R WCI  -7
PINE BLUFFS    CLOUDY    10   5  79 N7        30.17F WCI   0

$$


USA.gov is the U.S. government's official web portal to all federal, state and local government web resources and services.